View from above orbital plane
|
View from above satellite
|
Ground track
|
The orbit data is extracted from the following two-line orbital elements,
1 17369U 87011A 21100.54645630 -.00000055 00000-0 17123-4 0 9999
2 17369 65.0100 151.5196 0020290 281.7843 78.0965 14.31465904838061
Epoch (UTC): | 10 April 2021 13:06:53 |
Eccentricity: | 0.0020290 |
inclination: | 65.0100° |
perigee height: | 772 km |
apogee height: | 801 km |
right ascension of ascending node: | 151.5196° |
argument of perigee: | 281.7843° |
revolutions per day: | 14.31465904 |
mean anomaly at epoch: | 78.0965° |
orbit number at epoch: | 83806 |
The dashed part of the orbit path shows where the satellite is in the earth's shadow,
|
|